Voltar ao catálogo

COSMOS 252 DEB *

AtivoLEO
NORAD 3713·DEBRIS·🇷🇺 Russia

Lançado Nov 1, 1968 de Baikonur Cosmodrome

Loading…

Próximas Passagens (próximas 24 horas)

TLE

AtualizadoSource: Space-Track

Época: Sep 14, 2026, 04:49 UTC

1 03713U 68097AQ  26257.20114809  .00001090  00000-0  10906-2 0  9999
2 03713  62.2163 323.4244 0648412  27.9160 335.5091 13.14162744700958

Acompanhe COSMOS 252 DEB * em tempo real com AllMySat

Download on the App Store